Hourly Data Report for October 18, 2013

All times are specified in Local Standard Time (LST). Add 1 hour to adjust for Daylight Saving Time where and when it is observed.

ARVIAT A
NUNAVUT

61°05'38.000" N
94°04'18.000" W
10.40 m
2300427
71174
YEK

Download Data

Hourly Data (October 2013)
Hourly Data Report for October 18, 2013
Temp Definition
°C
Dew Point Temp Definition
°C
Rel Hum Definition
%
Wind Dir Definition
10's deg

Wind Spd Definition
km/h
Visibility Definition
km
Stn Press Definition
kPa
Hmdx Definition


Wind Chill Definition


Weather Definition


TIME
00:00 Legend Double Dagger -2.0 -2.6 96 32 32 11.3 100.00   -9 LegendNANA
01:00 Legend Double Dagger -2.3 -2.7 97 31 24 4.8 100.02   -9 LegendNANA
02:00 Legend Double Dagger -2.9 -3.6 95 35 18 9.7 100.08   -9 LegendNANA
03:00 Legend Double Dagger -2.8 -3.8 93 34 21 16.1 100.14   -9 LegendNANA
04:00 Legend Double Dagger -3.5 -5.2 88 34 26 16.1 100.17   -11 LegendNANA
05:00 Legend Double Dagger -4.1 -5.7 89 35 30 16.1 100.22   -12 LegendNANA
06:00 Legend Double Dagger -4.6 -6.1 89 34 26 16.1 100.29   -12 LegendNANA
07:00 Legend Double Dagger -5.4 -6.9 89 34 28 16.1 100.36   -13 LegendNANA
08:00 Legend Double Dagger -7.1 -7.9 94 32 21 16.1 100.41   -14 LegendNANA
09:00 Legend Double Dagger -5.4 -7.7 84 33 30 16.1 100.44   -14 LegendNANA
10:00 Legend Double Dagger -5.6 -7.9 84 33 21 16.1 100.46   -12 LegendNANA
11:00 Legend Double Dagger -6.2 -7.9 88 28 17 16.1 100.51   -12 LegendNANA
12:00 Legend Double Dagger -5.7 -7.5 87 28 17 16.1 100.55   -12 LegendNANA
13:00 Legend Double Dagger -5.2 -7.0 87 27 17 16.1 100.58   -11 LegendNANA
14:00 Legend Double Dagger -4.7 -6.6 87 28 15 16.1 100.60   -10 LegendNANA
15:00 Legend Double Dagger -4.6 -6.6 86 27 17 16.1 100.61   -10 LegendNANA
16:00 Legend Double Dagger -4.8 -6.6 87 25 15 16.1 100.62   -10 LegendNANA
17:00 Legend Double Dagger -5.6 -7.1 89 26 15 16.1 100.65   -11 LegendNANA
18:00 Legend Double Dagger -7.3 -8.1 94 24 15 16.1 100.68   -13 LegendNANA
19:00 Legend Double Dagger -7.3 -8.1 94 25 18 16.1 100.71   -14 LegendNANA
20:00 Legend Double Dagger -7.6 -8.4 94 24 17 16.1 100.72   -14 LegendNANA
21:00 Legend Double Dagger -8.3 -9.0 95 25 15 16.1 100.72   -15 LegendNANA
22:00 Legend Double Dagger -7.2 -7.7 96 25 13 16.1 100.70   -13 LegendNANA
23:00 Legend Double Dagger -7.4 -7.9 97 26 15 16.1 100.69   -14 LegendNANA

Notes on Data Quality.

Legend

  • E = Estimated
  • M = Missing
  • NA = Not Available
  • ‡ = Partner data that is not subject to review by the National Climate Archives
Date modified: